[Iaude] MPEC F92: 2022 FM2 [a=0.97,e=0.06,i=11.8,H=26.3]

mpec at marsden.cfa.harvard.edu mpec at marsden.cfa.harvard.edu
Sun Mar 27 08:36:17 EDT 2022


M.P.E.C. 2022-F92                                Issued 2022 March 27, 12:34 UT

     The Minor Planet Electronic Circulars contain information on unusual
         minor planets and routine data on comets.  They are published
    on behalf of Division F of the International Astronomical Union by the
          Minor Planet Center, Smithsonian Astrophysical Observatory,
                          Cambridge, MA 02138, U.S.A.

             Prepared using the Tamkin Foundation Computer Network

                              MPC at CFA.HARVARD.EDU
            URL https://www.minorplanetcenter.net/    ISSN 1523-6714

                                    2022 FM2                                    


Observations:
     K22F02M* C2022 03 26.30106512 20 47.52 +35 49 21.5          20.39GVEF092G96
     K22F02M  C2022 03 26.30627912 20 40.96 +35 48 20.1          20.73GVEF092G96
     K22F02M  C2022 03 26.31157212 20 34.25 +35 47 16.7          20.49GVEF092G96
     K22F02M  C2022 03 26.31687112 20 27.39 +35 46 12.8                VEF092G96
     K22F02M  C2022 03 26.42873712 18 05.97 +35 22 57.2          19.8 GVEF092H01
     K22F02M  C2022 03 26.43208612 18 01.84 +35 22 14.5          20.2 GVEF092H01
     K22F02M KC2022 03 26.43488312 17 58.91 +35 21 50.9          20.49GVEF092I52
     K22F02M KC2022 03 26.43551812 17 58.14 +35 21 42.4          20.32GVEF092I52
     K22F02M KC2022 03 26.43615312 17 57.39 +35 21 34.4          20.30GVEF092I52
     K22F02M KC2022 03 26.43678812 17 56.56 +35 21 26.7          20.19GVEF092I52
     K22F02M  C2022 03 26.44400212 17 47.17 +35 19 41.9          20.0 GVEF092H01
     K22F02M  C2022 03 26.44970812 17 40.17 +35 18 28.4          19.9 GVEF092H01
     K22F02M KC2022 03 26.82243312 10 54.39 +33 59 09.9          20.5 GXEF092I93
     K22F02M KC2022 03 26.82831812 10 47.32 +33 57 57.8                XEF092I93
     K22F02M KC2022 03 26.83468612 10 39.59 +33 56 38.2          20.6 GXEF092I93
     K22F02M KC2022 03 26.85985112 10 07.61 +33 50 55.4          20.1 GVEF092J95
     K22F02M 1C2022 03 26.87366212 09 48.14 +33 48 27.3          20.4 GVEF092246
     K22F02M 1C2022 03 26.87400412 09 47.77 +33 48 23.5                VEF092246
     K22F02M 1C2022 03 26.87434512 09 47.29 +33 48 18.4                VEF092246
     K22F02M KC2022 03 26.87441912 09 49.75 +33 47 51.4          20.2 GVEF092J95
     K22F02M 1C2022 03 26.87468712 09 46.88 +33 48 13.4                VEF092246
     K22F02M KC2022 03 27.06287212 05 54.99 +33 06 22.5          20.1 GVEF092J95
     K22F02M KC2022 03 27.06763312 05 49.05 +33 05 18.0          20.0 GVEF092J95
     K22F02M KC2022 03 27.07234212 05 43.20 +33 04 12.9          20.6 GVEF092J95
     K22F02M KC2022 03 27.07702212 05 37.40 +33 03 07.8          20.1 GVEF092J95
     K22F02M KC2022 03 27.11414112 05 11.76 +32 55 19.5          19.9 VuEF092H21
     K22F02M KC2022 03 27.11606912 05 09.34 +32 54 54.4          20.0 VuEF092H21
     K22F02M KC2022 03 27.11799912 05 06.94 +32 54 29.1          20.2 VuEF092H21
     K22F02M KC2022 03 27.11992712 05 04.54 +32 54 03.5          20.1 VuEF092H21
     K22F02M KC2022 03 27.12792 12 04 31.78 +32 51 26.7          20.5 GVEF092204
     K22F02M KC2022 03 27.14528 12 04 10.65 +32 47 19.9                VEF092204
     K22F02M  C2022 03 27.29393512 01 30.23 +32 15 05.6          19.81GVEF092G96
     K22F02M  C2022 03 27.30426712 01 17.03 +32 12 41.9          20.18GVEF092G96
     K22F02M  C2022 03 27.30940212 01 10.40 +32 11 29.5                VEF092G96
     K22F02M mC2022 03 27.37399111 59 47.66 +31 56 06.5          20.08GVEF092I52
     K22F02M mC2022 03 27.37427211 59 47.33 +31 56 02.5          20.39GVEF092I52
     K22F02M mC2022 03 27.37455311 59 46.95 +31 55 58.3          20.19GVEF092I52

Observer details:
204 Schiaparelli Observatory.  Observer L. Buzzi.  0.84-m f/3.5 reflector +
    CCD.
246 Klet Observatory-KLENOT.  Observers M. Tichy, J. Ticha, M. Honkova.
    Measurer M. Tichy.  1.06-m f/2.7 reflector + 2048x2048 CCD.
G96 Mt. Lemmon Survey.  Observer R. A. Kowalski.  Measurers E. J. Christensen,
    G. A. Farneth, J. B. Fazekas, D. C. Fuls, A. R. Gibbs, A. D. Grauer, H.
    Groeller, J. K. Hogan, R. A. Kowalski, S. M. Larson, G. J. Leonard, D.
    Rankin, R. L. Seaman, A. Serrano, F. C. Shelly, K. W. Wierzchos.  1.5-m
    reflector + 10K CCD.
H01 Magdalena Ridge Observatory, Socorro.  Observers W. H. Ryan, E. V. Ryan.
    Measurer W. H. Ryan.  2.4-m f/8.9 Ritchey-Chretien + CCD.
H21 Astronomical Research Observatory, Westfield.  Observer R. Holmes.
    Measurers T. Linder, R. Holmes, L. Horn.  0.76-m f/3.0 astrograph + CCD.
I52 Steward Observatory, Mt. Lemmon Station.  Observers G. J. Leonard, H.
    Groeller.  Measurers E. J. Christensen, G. A. Farneth, J. B. Fazekas, D.
    C. Fuls, A. R. Gibbs, A. D. Grauer, H. Groeller, J. K. Hogan, R. A.
    Kowalski, S. M. Larson, G. J. Leonard, D. Rankin, R. L. Seaman, A.
    Serrano, F. C. Shelly, K. W. Wierzchos.
I93 St Pardon de Conques.  Observer F. Losse.  0.40-m f/3.7 reflector + CCD.
J95 Great Shefford.  Observer P. Birtwhistle.  0.41-m f/6.3 Schmidt-Cassegrain
    + CCD.

Orbital elements:
2022 FM2                                                 Earth MOID = 0.0253 AU
Epoch 2022 Jan. 21.0 TT = JDT 2459600.5                 Veres                   
M 119.04364              (2000.0)            P               Q                  
n   1.03203177     Peri.  349.83199     +0.99934121     +0.00535587             
a   0.9697817      Node    10.07114     +0.01625875     +0.81817929             
e   0.0569883      Incl.   11.84509     -0.03244682     +0.57493823             
P   0.96           H   26.36          G   0.15           U   6                  
Residuals in seconds of arc
220326 G96  0.4-  0.7-    220326 I93  0.4-  0.2+    220327 H21  0.1-  0.1+
220326 G96  0.3+  0.1-    220326 I93  0.4-  0.2-    220327 H21  0.0   0.1+
220326 G96  0.3+  0.3-    220326 J95  0.2+  0.4-    220327 H21  0.1+  0.1-
220326 G96  1.4-  0.8-    220326 246  0.8-  0.3+    220327 204  0.2+  0.0
220326 H01  0.0   0.0     220326 246  0.1-  0.9+    220327 204  0.1-  0.2-
220326 H01  0.1+  0.0     220326 246  0.8-  0.2+    220327 G96  0.4-  0.1+
220326 I52  0.2-  0.2+    220326 J95  0.3-  0.1+    220327 G96  0.7+  0.9+
220326 I52  0.0   0.2-    220326 246  0.6-  0.4-    220327 G96  0.3+  0.6+
220326 I52  0.5+  0.0     220327 J95  0.1-  0.9-    220327 I52  0.2-  0.0
220326 I52  0.1-  0.4+    220327 J95  0.1-  0.0     220327 I52  0.1+  0.0
220326 H01  0.0   0.0     220327 J95  0.0   0.2-    220327 I52  0.2-  0.1-
220326 H01  0.0   0.1-    220327 J95  0.2+  0.7-
220326 I93  1.1-  0.8-    220327 H21  0.2+  0.2-

Ephemeris:
2022 FM2                 a,e,i = 0.97, 0.06, 12                  q = 0.9145
Date    TT    R. A. (2000) Decl.     Delta      r    Elong.  Phase     V
2022 02 25    16 04 57.4 +50 18 25   0.1209  1.0204   101.3    72.0    24.3
...
2022 03 12    15 18 05.1 +50 36 46   0.07412 1.0244   112.7    63.5    23.0
...
2022 03 20    14 04 55.2 +47 42 44   0.04968 1.0250   125.1    52.6    21.8
...
2022 03 26    12 26 33.7 +36 47 34   0.03492 1.0248   141.2    37.6    20.6
2022 03 27    12 07 14.8 +33 22 08   0.03318 1.0247   144.1    34.8    20.5
2022 03 28    11 47 43.5 +29 22 51   0.03175 1.0246   146.6    32.4    20.3
...
2022 04 03    10 02 17.3 -00 58 08   0.03163 1.0236   138.6    40.3    20.5
...
2022 04 11    08 39 15.6 -26 43 30   0.04915 1.0214   112.0    65.4    22.2
...
2022 04 26    07 39 14.6 -40 42 24   0.09442 1.0146    92.5    82.2    24.1

M. P. C. Staff               (C) Copyright 2022 MPC           M.P.E.C. 2022-F92




More information about the Iaude mailing list